EW6308 Weather Reports


Display with metric or nautical units.
time (UTC)temp
F
wind
direction
speed
MPH
gust
MPH
rain 1hr
in
rain 24hr
in
rain mn
in
humidity
%
barometer
mb
20260505152928 74 165 7.0 14.0 0.00 0.00 0.00 83 1010.0
20260505152426 74 215 11.0 17.0 0.00 0.00 0.00 83 1009.8
20260505151925 74 190 3.0 15.0 0.00 0.00 0.00 83 1009.8
20260505151421 74 213 11.0 16.0 0.00 0.00 0.00 83 1009.9
20260505150919 74 181 5.0 14.0 0.00 0.00 0.00 83 1009.8
20260505150416 74 184 8.0 10.0 0.00 0.00 0.00 83 1009.7
20260505140346 72 192 8.0 11.0 0.00 0.00 0.00 85 1009.6
20260505130309 71 194 5.0 8.0 0.00 0.00 0.00 86 1009.3
20260505124759 71 182 11.0 14.0 0.00 0.00 0.00 86 1009.1
20260505124256 71 253 7.0 11.0 0.00 0.00 0.00 86 1008.9
20260505123752 71 107 5.0 9.0 0.00 0.00 0.00 86 1009.0
20260505123249 71 222 4.0 9.0 0.00 0.00 0.00 86 1008.6
20260505122745 71 192 6.0 14.0 0.00 0.00 0.00 86 1008.6
20260505122242 71 191 6.0 13.0 0.00 0.00 0.00 86 1008.7
20260505121739 71 195 9.0 14.0 0.00 0.00 0.00 86 1008.6
20260505121236 71 196 5.0 9.0 0.00 0.00 0.00 86 1008.4
20260505120732 71 205 7.0 14.0 0.00 0.00 0.00 85 1008.4
20260505120228 71 200 5.0 11.0 0.00 0.00 0.00 85 1008.3
20260505115727 71 208 6.0 10.0 0.00 0.00 0.00 85 1008.6
20260505115225 71 210 7.0 10.0 0.00 0.00 0.00 86 1008.2
20260505114722 71 206 3.0 13.0 0.00 0.00 0.00 85 1008.3
20260505114218 71 190 3.0 13.0 0.00 0.00 0.00 85 1008.2
20260505113715 71 220 5.0 13.0 0.00 0.00 0.00 85 1008.2
20260505113211 71 156 6.0 10.0 0.00 0.00 0.00 85 1008.2
20260505112708 71 201 8.0 10.0 0.00 0.00 0.00 86 1008.2
20260505112206 71 191 6.0 8.0 0.00 0.00 0.00 86 1008.5
20260505111705 71 200 3.0 6.0 0.00 0.00 0.00 86 1008.1
20260505111201 71 215 6.0 9.0 0.00 0.00 0.00 86 1008.4
20260505110657 71 210 9.0 14.0 0.00 0.00 0.00 86 1008.5
20260505110155 71 200 4.0 9.0 0.00 0.00 0.00 86 1008.4
20260505102131 71 181 11.0 15.0 0.00 0.00 0.00 86 1008.5
20260505101629 71 177 9.0 11.0 0.00 0.00 0.00 86 1008.6
20260505101125 71 225 4.0 11.0 0.00 0.00 0.00 86 1008.5
20260505100621 71 210 8.0 13.0 0.00 0.00 0.00 86 1008.2
20260505100119 71 166 6.0 13.0 0.00 0.00 0.00 86 1008.1
20260505095614 71 195 6.0 10.0 0.00 0.00 0.00 86 1008.4
20260505095111 71 206 6.0 8.0 0.00 0.00 0.00 85 1008.4
20260505094608 71 230 5.0 14.0 0.00 0.00 0.00 85 1008.5
20260505094104 71 171 6.0 9.0 0.00 0.00 0.00 86 1008.5
20260505093600 71 245 4.0 14.0 0.00 0.00 0.00 86 1008.5
20260505093058 71 198 8.0 10.0 0.00 0.00 0.00 86 1008.4
20260505092555 71 245 5.0 9.0 0.00 0.00 0.00 86 1008.6
20260505092054 71 166 5.0 8.0 0.00 0.00 0.00 85 1008.6
20260505091550 71 180 7.0 11.0 0.00 0.00 0.00 85 1008.6
20260505091049 71 231 11.0 13.0 0.00 0.00 0.00 85 1008.6
20260505090546 71 196 4.0 11.0 0.00 0.00 0.00 85 1008.6
20260505090044 71 175 10.0 13.0 0.00 0.00 0.00 85 1008.7
20260505085541 71 190 4.0 16.0 0.00 0.00 0.00 85 1008.5
20260505085039 71 197 6.0 16.0 0.00 0.00 0.00 85 1008.4
20260505084537 71 164 6.0 15.0 0.00 0.00 0.00 85 1008.4
20260505084035 71 227 9.0 11.0 0.00 0.00 0.00 85 1008.5
20260505083532 71 199 10.0 15.0 0.00 0.00 0.00 85 1008.6
20260505083028 71 150 10.0 15.0 0.00 0.00 0.00 85 1008.6
20260505082524 71 237 7.0 10.0 0.00 0.00 0.00 85 1008.7
20260505082021 71 175 10.0 16.0 0.00 0.00 0.00 85 1008.8
20260505081518 71 181 6.0 17.0 0.00 0.00 0.00 85 1008.9
20260505081015 71 199 8.0 13.0 0.00 0.00 0.00 85 1009.0
20260505080511 71 191 6.0 7.0 0.00 0.00 0.00 85 1009.0
20260505080007 71 244 9.0 16.0 0.00 0.00 0.00 84 1009.2
20260505075504 71 197 9.0 13.0 0.00 0.00 0.00 84 1009.1
20260505075000 71 147 9.0 16.0 0.00 0.00 0.00 84 1009.4
20260505074458 71 174 5.0 17.0 0.00 0.00 0.00 84 1009.4
20260505073955 71 171 5.0 16.0 0.00 0.00 0.00 84 1009.4
20260505073452 71 191 6.0 15.0 0.00 0.00 0.00 84 1009.6
20260505072950 71 180 9.0 14.0 0.00 0.00 0.00 84 1009.7
20260505072446 71 195 7.0 10.0 0.00 0.00 0.00 84 1009.9
20260505071942 71 147 6.0 11.0 0.00 0.00 0.00 84 1009.8
20260505071438 71 212 5.0 10.0 0.00 0.00 0.00 84 1009.7
20260505070936 71 150 6.0 13.0 0.00 0.00 0.00 84 1010.0
20260505070433 71 201 6.0 13.0 0.00 0.00 0.00 84 1010.0
20260505065928 71 162 6.0 11.0 0.00 0.00 0.00 84 1010.1
20260505065425 71 221 8.0 13.0 0.00 0.00 0.00 84 1010.1
20260505064922 71 199 7.0 10.0 0.00 0.00 0.00 84 1010.0
20260505064419 71 202 4.0 10.0 0.00 0.00 0.00 84 1010.0
20260505063917 71 161 6.0 10.0 0.00 0.00 0.00 84 1010.1
20260505063413 71 210 4.0 9.0 0.00 0.00 0.00 84 1010.4
20260505062910 71 167 2.0 8.0 0.00 0.00 0.00 84 1010.5
20260505062407 71 195 5.0 10.0 0.00 0.00 0.00 83 1010.3
20260505061904 71 198 4.0 14.0 0.00 0.00 0.00 83 1010.4
20260505061402 71 198 4.0 10.0 0.00 0.00 0.00 83 1010.3
20260505060859 71 183 10.0 13.0 0.00 0.00 0.00 83 1010.4
20260505060356 71 211 5.0 14.0 0.00 0.00 0.00 83 1010.3
20260505055852 71 229 6.0 11.0 0.00 0.00 0.00 83 1010.5
20260505055348 71 200 6.0 8.0 0.00 0.00 0.00 83 1010.6
20260505054845 71 145 2.0 7.0 0.00 0.00 0.00 83 1010.7
20260505054343 71 210 5.0 7.0 0.00 0.00 0.00 83 1010.9
20260505053841 71 188 8.0 9.0 0.00 0.00 0.00 83 1010.5
20260505053337 71 174 5.0 8.0 0.00 0.00 0.00 82 1010.3
20260505052834 71 209 4.0 6.0 0.00 0.00 0.00 82 1010.3
20260505052331 71 201 7.0 13.0 0.00 0.00 0.00 82 1010.7
20260505051828 72 134 3.0 10.0 0.00 0.00 0.00 82 1010.4
20260505051325 72 186 5.0 9.0 0.00 0.00 0.00 81 1010.5
20260505050823 72 221 6.0 10.0 0.00 0.00 0.00 81 1010.6
20260505050322 72 215 5.0 10.0 0.00 0.00 0.00 81 1010.4
20260505041752 73 173 6.0 9.0 0.00 0.00 0.00 78 1010.4
20260505041249 73 191 3.0 13.0 0.00 0.00 0.00 78 1010.2
20260505040746 73 193 6.0 8.0 0.00 0.00 0.00 78 1010.3
20260505040244 73 181 8.0 11.0 0.00 0.00 0.00 77 1010.4
20260505035740 73 197 9.0 11.0 0.00 0.00 0.00 77 1010.2
20260505035236 73 175 4.0 8.0 0.00 0.00 0.00 77 1010.3
20260505034733 73 209 3.0 8.0 0.00 0.00 0.00 76 1010.4
20260505034230 74 174 4.0 11.0 0.00 0.00 0.00 76 1010.5
20260505033727 74 144 5.0 9.0 0.00 0.00 0.00 75 1010.4
20260505033225 74 214 7.0 10.0 0.00 0.00 0.00 75 1010.3
20260505032722 74 254 6.0 10.0 0.00 0.00 0.00 75 1010.3
20260505032218 74 155 4.0 8.0 0.00 0.00 0.00 75 1010.4
20260505031716 74 218 1.0 4.0 0.00 0.00 0.00 75 1010.3
20260505031212 74 195 3.0 6.0 0.00 0.00 0.00 74 1010.4
20260505030709 74 195 7.0 9.0 0.00 0.00 0.00 73 1010.5
20260505030205 74 171 5.0 9.0 0.00 0.00 0.00 73 1010.3
20260505025701 75 169 4.0 8.0 0.00 0.00 0.00 73 1010.1
20260505025159 75 177 4.0 9.0 0.00 0.00 0.00 72 1010.2
20260505024657 75 238 4.0 7.0 0.00 0.00 0.00 72 1010.1
20260505024154 75 195 6.0 9.0 0.00 0.00 0.00 72 1010.0
20260505023651 75 168 5.0 7.0 0.00 0.00 0.00 72 1009.9
20260505023149 75 223 6.0 7.0 0.00 0.00 0.00 71 1010.0
20260505022646 75 183 6.0 10.0 0.00 0.00 0.00 71 1009.8
20260505022143 75 165 6.0 9.0 0.00 0.00 0.00 71 1009.8
20260505021639 76 204 4.0 9.0 0.00 0.00 0.00 70 1009.8
20260505021136 76 170 3.0 10.0 0.00 0.00 0.00 70 1009.9
20260505020632 76 207 3.0 7.0 0.00 0.00 0.00 69 1009.8
20260505020128 76 210 3.0 10.0 0.00 0.00 0.00 69 1009.6
20260505015625 76 175 9.0 11.0 0.00 0.00 0.00 69 1009.3
20260505015122 76 157 8.0 11.0 0.00 0.00 0.00 69 1009.3
20260505014618 76 143 4.0 11.0 0.00 0.00 0.00 69 1009.3
20260505014116 76 177 6.0 10.0 0.00 0.00 0.00 69 1009.6
20260505013613 76 173 9.0 11.0 0.00 0.00 0.00 69 1009.6
20260505013110 76 166 6.0 8.0 0.00 0.00 0.00 69 1009.6
20260505012608 76 163 2.0 9.0 0.00 0.00 0.00 68 1009.6
20260505012105 77 195 6.0 11.0 0.00 0.00 0.00 68 1009.6
20260505011600 77 128 3.0 8.0 0.00 0.00 0.00 68 1009.6
20260505011058 77 193 2.0 11.0 0.00 0.00 0.00 67 1009.7
20260505010553 77 168 3.0 6.0 0.00 0.00 0.00 67 1009.7
20260505010050 77 176 7.0 9.0 0.00 0.00 0.00 66 1009.7
20260505005546 78 194 9.0 9.0 0.00 0.00 0.00 65 1009.5
20260505005044 78 176 4.0 14.0 0.00 0.00 0.00 65 1009.6
20260505004540 78 171 5.0 13.0 0.00 0.00 0.00 65 1009.8
20260505004037 78 149 4.0 11.0 0.00 0.00 0.00 64 1009.7
20260505003535 78 162 6.0 10.0 0.00 0.00 0.00 63 1009.6
20260505003032 79 200 9.0 11.0 0.00 0.00 0.00 63 1009.6
20260505002532 79 182 8.0 16.0 0.00 0.00 0.00 62 1009.7
20260505002031 79 191 9.0 15.0 0.00 0.00 0.00 62 1009.6
20260505001528 79 187 5.0 11.0 0.00 0.00 0.00 61 1009.6
20260505001025 79 189 6.0 14.0 0.00 0.00 0.00 61 1010.0
20260505000523 80 171 6.0 15.0 0.00 0.00 0.00 61 1009.9
20260505000020 80 199 7.0 15.0 0.00 0.00 0.00 60 1009.9
20260504235517 80 216 11.0 23.0 0.00 0.00 0.00 60 1009.6
20260504235013 80 155 6.0 15.0 0.00 0.00 0.00 60 1009.9
20260504234510 80 156 9.0 15.0 0.00 0.00 0.00 60 1009.9
20260504234007 80 211 10.0 18.0 0.00 0.00 0.00 60 1010.0
20260504233502 80 229 6.0 21.0 0.00 0.00 0.00 60 1010.0
20260504233000 80 185 8.0 16.0 0.00 0.00 0.00 60 1010.1
20260504232457 80 197 8.0 17.0 0.00 0.00 0.00 60 1010.3
20260504231954 80 182 10.0 14.0 0.00 0.00 0.00 60 1010.2
20260504231450 80 176 9.0 15.0 0.00 0.00 0.00 60 1010.4
20260504230947 80 207 6.0 14.0 0.00 0.00 0.00 61 1010.2
20260504230443 80 181 6.0 9.0 0.00 0.00 0.00 60 1010.5
20260504225943 80 201 9.0 14.0 0.00 0.00 0.00 61 1010.5
20260504225439 80 167 7.0 14.0 0.00 0.00 0.00 60 1010.7
20260504224936 80 176 3.0 10.0 0.00 0.00 0.00 62 1010.7
20260504224432 79 142 4.0 14.0 0.00 0.00 0.00 61 1010.4
20260504223930 79 196 11.0 18.0 0.00 0.00 0.00 60 1010.5
20260504223425 79 214 6.0 13.0 0.00 0.00 0.00 60 1010.7
20260504222921 80 208 6.0 9.0 0.00 0.00 0.00 61 1010.6
20260504222419 80 182 9.0 16.0 0.00 0.00 0.00 60 1010.7
20260504221917 80 190 12.0 18.0 0.00 0.00 0.00 59 1011.0
20260504221413 80 201 11.0 14.0 0.00 0.00 0.00 59 1010.7
20260504220911 80 146 6.0 9.0 0.00 0.00 0.00 61 1010.9
20260504220407 80 145 9.0 16.0 0.00 0.00 0.00 60 1011.2
20260504215904 79 208 5.0 10.0 0.00 0.00 0.00 61 1010.9
20260504215401 79 186 9.0 15.0 0.00 0.00 0.00 60 1011.1
20260504214857 80 206 7.0 11.0 0.00 0.00 0.00 59 1011.0
20260504214354 80 167 4.0 15.0 0.00 0.00 0.00 60 1011.1
20260504213851 80 236 8.0 21.0 0.00 0.00 0.00 58 1011.3
20260504213346 81 213 10.0 16.0 0.00 0.00 0.00 58 1011.2
20260504212844 80 206 4.0 15.0 0.00 0.00 0.00 60 1011.6
20260504212340 80 170 5.0 15.0 0.00 0.00 0.00 59 1011.8
20260504211838 80 177 6.0 13.0 0.00 0.00 0.00 58 1011.6
20260504211334 81 178 12.0 15.0 0.00 0.00 0.00 58 1011.9
20260504210831 79 210 6.0 13.0 0.00 0.00 0.00 60 1011.6
20260504210328 80 220 10.0 14.0 0.00 0.00 0.00 59 1012.2
20260504205825 80 181 4.0 8.0 0.00 0.00 0.00 60 1012.2
20260504205323 80 198 8.0 10.0 0.00 0.00 0.00 59 1012.2
20260504204821 79 176 7.0 15.0 0.00 0.00 0.00 60 1012.3
20260504204319 79 202 12.0 17.0 0.00 0.00 0.00 59 1012.2
20260504203818 79 227 11.0 17.0 0.00 0.00 0.00 59 1012.3
20260504203315 79 240 11.0 18.0 0.00 0.00 0.00 59 1012.7
20260504202810 79 158 13.0 18.0 0.00 0.00 0.00 59 1012.8
20260504202308 79 218 11.0 21.0 0.00 0.00 0.00 59 1012.9
20260504201804 79 181 9.0 18.0 0.00 0.00 0.00 59 1013.0
20260504201302 79 190 6.0 16.0 0.00 0.00 0.00 60 1013.3
20260504200759 78 195 6.0 16.0 0.00 0.00 0.00 61 1013.2
20260504200255 78 218 9.0 14.0 0.00 0.00 0.00 60 1013.2
20260504195752 79 187 12.0 17.0 0.00 0.00 0.00 59 1013.4
20260504195248 79 161 10.0 19.0 0.00 0.00 0.00 59 1013.2
20260504194745 78 212 9.0 17.0 0.00 0.00 0.00 60 1013.5
20260504194241 78 162 11.0 18.0 0.00 0.00 0.00 60 1013.5
20260504193737 78 148 6.0 19.0 0.00 0.00 0.00 60 1013.6
20260504193235 78 213 9.0 14.0 0.00 0.00 0.00 61 1013.6
20260504192733 79 141 7.0 19.0 0.00 0.00 0.00 59 1013.6
20260504192231 79 151 15.0 19.0 0.00 0.00 0.00 59 1013.5
20260504191729 78 179 10.0 21.0 0.00 0.00 0.00 60 1013.7
20260504191226 78 222 12.0 16.0 0.00 0.00 0.00 60 1013.8
20260504190721 78 186 10.0 19.0 0.00 0.00 0.00 60 1013.9
20260504190218 78 194 13.0 24.0 0.00 0.00 0.00 59 1014.1
20260504185714 78 183 6.0 16.0 0.00 0.00 0.00 60 1013.9
20260504185211 78 222 10.0 17.0 0.00 0.00 0.00 61 1014.0
20260504184707 78 180 8.0 24.0 0.00 0.00 0.00 61 1014.1
20260504184203 77 150 8.0 21.0 0.00 0.00 0.00 61 1014.3
20260504183659 78 190 6.0 13.0 0.00 0.00 0.00 60 1014.6
20260504183156 78 149 11.0 15.0 0.00 0.00 0.00 60 1014.4
20260504182654 78 152 3.0 11.0 0.00 0.00 0.00 61 1014.5
20260504182151 77 208 8.0 10.0 0.00 0.00 0.00 61 1014.5
20260504181649 78 232 12.0 15.0 0.00 0.00 0.00 59 1014.6
20260504181146 78 215 5.0 16.0 0.00 0.00 0.00 61 1014.6
20260504180645 78 233 5.0 10.0 0.00 0.00 0.00 60 1014.8
20260504180143 78 226 4.0 10.0 0.00 0.00 0.00 61 1014.8
20260504175640 77 167 8.0 13.0 0.00 0.00 0.00 61 1014.9
20260504175137 77 185 9.0 21.0 0.00 0.00 0.00 60 1015.1
20260504174636 77 178 10.0 15.0 0.00 0.00 0.00 60 1015.2
20260504174131 78 244 4.0 14.0 0.00 0.00 0.00 60 1015.1
20260504173629 77 195 6.0 10.0 0.00 0.00 0.00 62 1015.3
20260504173126 76 166 9.0 14.0 0.00 0.00 0.00 61 1015.3
20260504172622 77 179 9.0 18.0 0.00 0.00 0.00 59 1015.2
20260504172119 76 219 4.0 19.0 0.00 0.00 0.00 62 1015.2
20260504171616 76 214 3.0 11.0 0.00 0.00 0.00 62 1015.4
20260504171113 76 160 8.0 17.0 0.00 0.00 0.00 62 1015.7
20260504170609 76 205 9.0 14.0 0.00 0.00 0.00 60 1015.7
20260504170107 76 181 9.0 19.0 0.00 0.00 0.00 61 1015.8